Weather History for Punta Gorda, FL

Change the Weather History Date:

Wednesday, December 12, 2012

  Actual Average Record
Temperature  
Mean Temperature 74 °F -  
Max Temperature 80 °F 73 °F 84 °F (2007)
Min Temperature 69 °F 52 °F 39 °F (2003)
Cooling Degree Days 10    
Growing Degree Days 24 (Base 50)    
Moisture  
Dew Point 71 °F    
Average Humidity 92    
Maximum Humidity 100    
Minimum Humidity 79    
Precipitation  
Precipitation 0.39 in - - ()
Sea Level Pressure  
Sea Level Pressure 30.07 in    
Wind  
Wind Speed 9 mph (SW)    
Max Wind Speed 26 mph    
Max Gust Speed 41 mph    
Visibility 7 miles    
Events Fog , Rain    
Averages and records for this station are not official NWS values.
T = Trace of Precipitation, MM = Missing Value Source: NWS Daily Summary

Daily Weather History Graph

Daily Weather History Graph

Search for Another Location

Airport:

Trip Planner

Search our weather history database for the weather conditions in past years. The results will help you decide how hot, cold, wet, or windy it might be!

Date:

Astronomy

Dec. 12, 2012 Rise Set
Actual Time 7:07 AM EST 5:36 PM EST
Civil Twilight 6:42 AM EST 6:01 PM EST
Nautical Twilight 6:13 AM EST 6:30 PM EST
Astronomical Twilight 5:45 AM EST 6:58 PM EST
Moon 6:12 AM EST (12/12) 5:10 PM EST (12/12)
Length of Visible Light 11h 19m
Length of Day
10h 28m
Waning Crescent, 1% of the Moon is Illuminated
Dec 12
Waning Crescent
Dec 13
New
Dec 20
First Quarter
Dec 28
Full
Jan 4
Last Quarter

Hourly Weather History & Observations

Time (EST) Temp. Heat Index Dew Point Humidity Pressure Visibility Wind Dir Wind Speed Gust Speed Precip Events Conditions
12:53 AM 73.9 °F - 73.0 °F 97% 30.09 in 5.0 mi WSW 17.3 mph 24.2 mph 0.05 in Rain Light Rain
12:57 AM 71.6 °F - 69.8 °F 94% 30.09 in 2.5 mi WSW 26.5 mph 41.4 mph 0.06 in Rain Heavy Rain
1:00 AM 69.8 °F - 68.0 °F 94% 30.08 in 1.8 mi WSW 24.2 mph 41.4 mph 0.14 in Rain Heavy Rain
1:13 AM 69.8 °F - 66.2 °F 88% 30.06 in 2.5 mi WSW 17.3 mph 28.8 mph 0.30 in Rain Rain
1:20 AM 69.8 °F - 66.2 °F 88% 30.06 in 5.0 mi WSW 16.1 mph 26.5 mph 0.32 in Rain Rain
1:53 AM 69.1 °F - 66.0 °F 90% 30.04 in 10.0 mi South 6.9 mph - 0.33 in   Scattered Clouds
2:53 AM 70.0 °F - 68.0 °F 93% 30.03 in 10.0 mi South 8.1 mph - N/A   Clear
3:53 AM 69.1 °F - 66.9 °F 93% 30.02 in 10.0 mi Calm Calm - N/A   Clear
4:21 AM 69.8 °F - 68.0 °F 94% 30.03 in 10.0 mi Calm Calm - N/A   Mostly Cloudy
4:53 AM 69.1 °F - 68.0 °F 96% 30.02 in 10.0 mi ENE 5.8 mph - N/A   Overcast
5:00 AM 69.8 °F - 68.0 °F 94% 30.03 in 10.0 mi NNE 5.8 mph - N/A   Overcast
5:53 AM 70.0 °F - 68.0 °F 93% 30.04 in 10.0 mi East 4.6 mph - N/A   Overcast
6:53 AM 70.0 °F - 69.1 °F 97% 30.06 in 10.0 mi NE 3.5 mph - N/A   Overcast
7:53 AM 71.1 °F - 69.1 °F 93% 30.08 in 10.0 mi Calm Calm - N/A   Overcast
8:25 AM 71.6 °F - 69.8 °F 94% 30.09 in 10.0 mi North 3.5 mph - N/A   Overcast
8:53 AM 73.0 °F - 71.1 °F 93% 30.10 in 10.0 mi NE 4.6 mph - N/A   Overcast
9:09 AM 73.4 °F - 71.6 °F 94% 30.10 in 10.0 mi Calm Calm - N/A   Overcast
9:34 AM 75.2 °F - 71.6 °F 89% 30.11 in 10.0 mi NNE 3.5 mph - N/A   Overcast
9:53 AM 75.0 °F - 72.0 °F 90% 30.12 in 10.0 mi Calm Calm - N/A   Overcast
10:32 AM 75.2 °F - 71.6 °F 89% 30.10 in 10.0 mi Calm Calm - N/A   Overcast
10:53 AM 77.0 °F - 73.0 °F 88% 30.10 in 10.0 mi Calm Calm - N/A   Overcast
11:04 AM 77.0 °F - 73.4 °F 89% 30.10 in 10.0 mi WSW 3.5 mph - N/A   Overcast
11:53 AM 78.1 °F - 73.0 °F 84% 30.09 in 10.0 mi WSW 4.6 mph - N/A   Mostly Cloudy
12:53 PM 79.0 °F - 73.0 °F 82% 30.06 in 10.0 mi SW 8.1 mph - N/A   Overcast
1:00 PM 78.8 °F - 73.4 °F 83% 30.06 in 10.0 mi SW 10.4 mph - N/A   Mostly Cloudy
1:33 PM 80.6 °F 85.4 °F 73.4 °F 79% 30.05 in 10.0 mi SSW 10.4 mph - N/A   Mostly Cloudy
1:46 PM 80.6 °F 85.4 °F 73.4 °F 79% 30.04 in 10.0 mi SSW 15.0 mph - 0.01 in   Mostly Cloudy
1:53 PM 80.1 °F 84.2 °F 73.0 °F 79% 30.05 in 10.0 mi SSW 13.8 mph - 0.01 in   Mostly Cloudy
2:53 PM 80.1 °F 84.2 °F 73.0 °F 79% 30.06 in 10.0 mi SSW 13.8 mph - N/A   Overcast
3:41 PM 77.0 °F - 71.6 °F 83% 30.05 in 10.0 mi WSW 12.7 mph 19.6 mph N/A   Scattered Clouds
3:53 PM 77.0 °F - 72.0 °F 84% 30.06 in 10.0 mi WSW 12.7 mph - N/A   Partly Cloudy
4:53 PM 75.9 °F - 73.0 °F 91% 30.07 in 10.0 mi SSW 5.8 mph - N/A   Overcast
5:53 PM 75.0 °F - 73.0 °F 94% 30.07 in 10.0 mi WSW 4.6 mph - N/A   Mostly Cloudy
6:00 PM 75.2 °F - 73.4 °F 94% 30.06 in 10.0 mi West 4.6 mph - N/A   Mostly Cloudy
6:27 PM 75.2 °F - 73.4 °F 94% 30.07 in 10.0 mi SW 4.6 mph - N/A   Overcast
6:53 PM 73.0 °F - 72.0 °F 96% 30.07 in 8.0 mi South 4.6 mph - N/A   Partly Cloudy
7:53 PM 72.0 °F - 70.0 °F 93% 30.08 in 1.8 mi Calm Calm - N/A   Partly Cloudy
8:13 PM 71.6 °F - 69.8 °F 94% 30.07 in 3.0 mi SSE 4.6 mph - N/A   Clear
8:53 PM 73.0 °F - 71.1 °F 93% 30.08 in 5.0 mi Calm Calm - N/A   Partly Cloudy
9:01 PM 71.6 °F - 71.6 °F 100% 30.08 in 1.8 mi Calm Calm - N/A   Scattered Clouds
9:10 PM 71.6 °F - 71.6 °F 100% 30.08 in 1.2 mi Calm Calm - N/A   Mostly Cloudy
9:14 PM 71.6 °F - 71.6 °F 100% 30.09 in 4.0 mi Calm Calm - N/A   Mostly Cloudy
9:23 PM 71.6 °F - 71.6 °F 100% 30.09 in 5.0 mi Calm Calm - N/A   Mostly Cloudy
9:44 PM 71.6 °F - 71.6 °F 100% 30.09 in 5.0 mi Calm Calm - N/A   Overcast
9:53 PM 73.0 °F - 72.0 °F 96% 30.10 in 6.0 mi WSW 3.5 mph - N/A   Overcast
10:33 PM 71.6 °F - 71.6 °F 100% 30.09 in 3.0 mi South 3.5 mph - N/A   Mostly Cloudy
10:41 PM 71.6 °F - 71.6 °F 100% 30.10 in 2.5 mi SW 4.6 mph - N/A   Mostly Cloudy
10:48 PM 73.4 °F - 71.6 °F 94% 30.10 in 5.0 mi WSW 3.5 mph - N/A   Overcast
10:53 PM 73.0 °F - 71.1 °F 93% 30.10 in 6.0 mi SW 4.6 mph - N/A   Overcast
11:16 PM 71.6 °F - 71.6 °F 100% 30.09 in 3.0 mi SSW 5.8 mph - N/A   Overcast
11:25 PM 71.6 °F - 71.6 °F 100% 30.08 in 3.0 mi SSW 4.6 mph - N/A   Overcast
11:31 PM 73.4 °F - 71.6 °F 94% 30.08 in 1.8 mi SSW 3.5 mph - N/A   Overcast
11:42 PM 73.4 °F - 71.6 °F 94% 30.08 in 0.5 mi SW 3.5 mph - N/A Fog Fog
11:53 PM 73.0 °F - 72.0 °F 96% 30.08 in 0.2 mi SW 3.5 mph - N/A Fog Fog